Showing default

GHOST-5, 59130

Orbit data source: Space-Track

GHOST-5, 59130 is a payload satellite owned by Orbital Sidekick (US) in SSO that was launched on Mon, 04 Mar 2024 UTC via an FALCON 9 launch vehicle from the Air Force Western Test Range (AFWTR). Payload-class satellites include a variety of spacecraft equipped with specific instruments for various scientific and technological missions. These include communications satellites like Starlink; space stations such as the ISS; scientific satellites like the Hubble; Earth observation satellites from companies like Planet Labs, Umbra, and HawkEye 360; GPS; miniature CubeSats for education and research; and military/defense satellites.

Loading next visibility...
Identifier
59130, 2024-043AJ
Orbit
SSO
Country
Flag of USUS
Related business
Manufacturer
Astro Digital
Mission
Operational Commercial Imaging
Bus & Motor
CORVUS-XL, Unknown motor
Mass
85 kg wet, 85 kg dry
Launch date (UTC)
2024-03-04 (2 years ago)
Launch vehicle
FALCON 9
Launch site
Air Force Western Test Range (AFWTR)
Object type
Payload
Rocket body
Debris
Shape & HBR
Box + 1 Dish, 1.0 m
Radar Cross Section
0.425 m², Medium (>0.1 m² and < 1m²)

Expand to show TLE details & history
Last TLE update: 5 days ago

TLE from 5 days ago
0 GHOST-5
1 59130U 24043AJ  26154.29294154  .00015081  00000-0  34911-3 0  9991
2 59130  97.5581 298.2615 0006603 264.7570  95.2923 15.42538090125379
Epoch: 2026-06-03T07:01Z
TLE epoch observation values (Epoch: 2026-06-03T07:01:50.149Z)
Latitude
-0.00004°
Longitude
-58.95109°
Altitude
442.156 km
Speed
7.646 km/s
True Right ascension
19h 53m 02s
True Declination
0° 00' 00"
Sunlit
Object was in full shadow at epoch
Visualization orbit readout
Latitude
Unknown
Longitude
Unknown
Altitude
Unknown
Speed
Unknown
Apparent Right ascension
Unknown
Apparent Declination
Unknown
Sunlit
N/A
Visualization observer readout
Local Sidereal Time
04:14:15
Azimuth
Unknown
Elevation
Unknown
Doppler factor
Unknown
Orbital elements
Apogee altitude
440.063 km
Perigee altitude
431.065 km
Semi-major axis
6,813.701 km
Eccentricity
0.00066
Inclination
97.5581°
RAAN
298.2615°
Arg. of periapsis
264.757°
True anomaly
95.36764°
Mean anomaly
95.2923°
Eccentric anomaly
95.32997°
Mean motion
3.85894 °/min
Orbital period
93.29 mins
BSTAR
0.00034911
Loading maneuver chart data...
Computing Atmospheric mass density...
Loading historical data...
Loading historical data...
Loading historical data...
Loading historical data...
Loading historical data...
Loading historical data...
Loading historical data...

Documentation

Showing up to 5 results
|